www.pogodaiklimat.ru

Погода и климат >> Архив погоды >> Франция >> Крей


ПОГОДА в Крее

  • Прогноз погоды в Крее
  • Монитор погоды в Крее

АРХИВ ПОГОДЫ в Крее

Время (UTC), дата Ветер
(напр.,м/с)
 
Видим.   Явления Облачность Т
(С)
Тd
(С)
f
(%)
Тe
(С)
Тes
(С)
Комфортность P
(гПа)
Po
(гПа)
Тmin
(С)
Tmax
(С)
R
(мм)
R24
(мм)
S
(см)
13 18.08 З 3 20 км н/о +18.6 +15.1 80 +20 +20 1010.0 999.7
14 18.08 ЮЗ 2 20 км н/о +19.6 +15.0 75 +22 +22 комфорт 1010.2 1000.0
15 18.08 ЮЗ 3
{9}
20 км н/о +21.9 +15.3 66 +25 +25 комфорт 1010.1 999.9
16 18.08 З 2 20 км н/о +21.5 +14.4 64 +24 +24 комфорт 1010.5 1000.3
17 18.08 З 2 20 км н/о +21.3 +13.0 59 +24 +24 комфорт 1010.7 1000.5
18 18.08 З 1
{7}
20 км н/о +19.9 +12.2 61 +23 +23 комфорт 1011.2 1001.0 +16.1 +22.1
19 18.08 З 1 20 км н/о +18.8 +13.0 69 +21 +21 комфорт 1011.6 1001.3
20 18.08 СЗ 1 20 км н/о +17.5 +11.7 69 +19 +19 1012.3 1002.0
21 18.08 З 1
{3}
20 км н/о +15.2 +11.4 78 +16 +16 1013.0 1002.6
22 18.08 З 1 20 км н/о +14.3 +12.0 86 +15 +15 1013.8 1003.3
23 18.08 Ю 1 20 км н/о +13.7 +11.7 88 +15 +15 1014.8 1004.3
00 19.08 ЮВ 1
{2}
20 км н/о +13.0 +11.9 93 +14 +14 1015.1 1004.6
01 19.08 ЮЗ 1 20 км н/о +12.8 +11.5 92 +13 +13 1015.4 1004.9
02 19.08 ЮЗ 1 20 км н/о +13.3 +11.0 86 +13 +13 1015.8 1005.3
03 19.08 Ю 1
{4}
20 км н/о +12.9 +11.1 89 +13 +13 1016.1 1005.5
04 19.08 ЮЗ 2 20 км н/о +12.5 +10.9 90 +12 +12 1016.6 1006.0
05 19.08 ЮЗ 2 20 км н/о +13.0 +11.2 89 +12 +12 1017.0 1006.4
06 19.08 ЮЗ 2
{5}
20 км н/о +13.7 +11.6 87 +13 +13 1017.3 1006.8 +12.5 +20.0
07 19.08 З 2 19 км н/о +14.8 +11.9 83 +15 +15 1017.4 1006.9
08 19.08 ЮЗ 3 19 км н/о +16.6 +12.5 77 +17 +17 1017.8 1007.4
09 19.08 ЮЗ 3
{9}
19 км н/о +18.4 +12.4 68 +19 +19 1018.2 1007.8
10 19.08 ЮЗ 3 19 км н/о +19.9 +11.6 59 +22 +22 комфорт 1018.4 1008.1
11 19.08 З 3 20 км н/о +20.8 +10.3 51 +23 +23 комфорт 1018.6 1008.3
12 19.08 З 3
{10}
20 км н/о +21.4 +10.5 50 +23 +23 комфорт 1018.6 1008.3
13 19.08 З 3 20 км н/о +21.5 +10.3 49 +23 +23 комфорт 1018.9 1008.6
14 19.08 З 2 20 км н/о +21.2 +10.7 51 +23 +23 комфорт 1018.9 1008.6
15 19.08 ЮЗ 3
{9}
20 км н/о +21.8 +9.0 44 +23 +23 комфорт 1018.8 1008.5
16 19.08 З 2 20 км н/о +22.6 +7.9 39 +24 +24 комфорт 1018.7 1008.5
17 19.08 З 2 20 км н/о +22.1 +8.6 42 +23 +23 комфорт 1018.8 1008.5
18 19.08 СЗ 2
{7}
20 км н/о +20.4 +9.9 51 +23 +23 комфорт 1019.3 1009.0 +13.7 +23.6
19 19.08 СЗ 1 20 км н/о +17.8 +10.4 62 +19 +19 1019.8 1009.4
20 19.08 ЮВ 1 20 км н/о +16.2 +11.4 73 +18 +18 1020.5 1010.0
21 19.08 штиль 0
{1}
20 км н/о +13.7 +11.2 85 +13 +13 1021.2 1010.6
22 19.08 В 1 5000 м н/о +13.0 +11.2 89 +14 +14 1021.8 1011.2
23 19.08 штиль 0 19 км н/о +12.0 +10.7 92 +11 +11 1022.2 1011.5
00 20.08 ЮВ 1
{1}
20 км н/о +11.6 +10.8 95 +12 +12 1022.1 1011.4
01 20.08 штиль 0 20 км н/о +10.8 +9.9 94 +10 +10 1022.1 1011.4
02 20.08 штиль 0 20 км н/о +10.6 +10.1 97 +10 +10 1021.9 1011.2
03 20.08 штиль 0
{1}
20 км н/о +11.0 +10.4 96 +10 +10 1022.2 1011.5
04 20.08 штиль 0 20 км н/о +11.4 +10.9 97 +11 +11 1022.3 1011.6
05 20.08 штиль 0 20 км н/о +12.2 +11.4 95 +12 +12 1022.9 1012.3
06 20.08 ЮВ 1
{2}
19 км н/о +12.6 +11.8 95 +13 +13 1023.5 1012.9 +10.3 +20.3
07 20.08 штиль 0 20 км н/о +13.2 +11.9 92 +13 +13 1024.0 1013.4 0.2
08 20.08 З 1 19 км н/о +16.4 +12.7 79 +17 +17 1023.7 1013.2
09 20.08 СЗ 2
{5}
20 км н/о +18.1 +11.6 66 +19 +19 1024.1 1013.7 0.2
10 20.08 З 1 20 км н/о +19.5 +11.3 59 +22 +22 комфорт 1024.4 1014.0
11 20.08 З 2 19 км н/о +19.9 +10.9 56 +22 +22 комфорт 1024.3 1013.9
12 20.08 З 2
{8}
20 км н/о +20.5 +10.0 51 +23 +23 комфорт 1024.1 1013.7
13 20.08 З 2 19 км н/о +22.7 +9.1 42 +24 +24 комфорт 1024.1 1013.8
14 20.08 З 2 20 км н/о +22.9 +8.6 40 +24 +24 комфорт 1024.5 1014.2
15 20.08 СЗ 4
{10}
20 км н/о +22.3 +7.3 38 +23 +23 комфорт 1024.8 1014.5
16 20.08 СЗ 4
{7}
20 км н/о +22.6 +7.9 39 +24 +24 комфорт 1024.7 1014.4
17 20.08 СЗ 3
{6}
20 км н/о +21.1 +10.0 49 +23 +23 комфорт 1025.3 1014.9
18 20.08 С 2
{5}
20 км н/о +20.3 +9.5 50 +23 +23 комфорт 1025.8 1015.4 +12.6 +23.4
19 20.08 С 2 20 км н/о +17.8 +10.4 62 +19 +19 1026.5 1016.0
20 20.08 С 1 20 км н/о +15.6 +10.4 71 +16 +16 1027.2 1016.6
21 20.08 С 1
{2}
20 км н/о +13.9 +10.5 80 +15 +15 1027.7 1017.1
22 20.08 В 1 20 км н/о +13.0 +9.8 81 +14 +14 1028.1 1017.4
23 20.08 В 1 20 км н/о +11.3 +9.7 90 +12 +12 1028.3 1017.6
00 21.08 В 1
{2}
20 км н/о +10.5 +9.6 94 +11 +11 1028.4 1017.6
01 21.08 Ю 1 20 км н/о +9.8 +9.2 96 +10 +10 1028.5 1017.7
02 21.08 штиль 0 16 км н/о +9.3 +8.8 97 +8 +8 1028.5 1017.7
03 21.08 штиль 0
{1}
20 км н/о +8.1 +7.3 95 +7 +7 1028.3 1017.4
04 21.08 штиль 0 16 км н/о +8.0 +7.6 97 +7 +7 1028.2 1017.3
05 21.08 штиль 0 19 км н/о +7.4 +7.0 97 +6 +6 1028.8 1017.9
06 21.08 штиль 0
{1}
19 км н/о +9.7 +9.6 99 +9 +9 1028.9 1018.1 +7.2 +20.2
07 21.08 С 1 19 км н/о +12.2 +10.6 90 +13 +13 1029.1 1018.4
08 21.08 С 1 19 км н/о +15.6 +12.3 81 +17 +17 1029.0 1018.4
09 21.08 СВ 1
{5}
20 км н/о +18.0 +12.4 70 +19 +19 1028.8 1018.3
10 21.08 СВ 1 20 км н/о +19.5 +11.3 59 +22 +22 комфорт 1028.4 1018.0
11 21.08 С 1 20 км н/о +20.5 +9.4 49 +23 +23 комфорт 1027.9 1017.5
12 21.08 З 1
{4}
20 км н/о +21.8 +9.7 46 +23 +23 комфорт 1027.3 1016.9
13 21.08 С 1 20 км н/о +21.7 +9.9 47 +23 +23 комфорт 1026.9 1016.5
14 21.08 СВ 1 20 км н/о +22.2 +9.7 45 +24 +24 комфорт 1026.5 1016.2
15 21.08 СВ 1
{5}
20 км н/о +22.5 +10.3 46 +24 +24 комфорт 1026.0 1015.7
16 21.08 В 1 20 км н/о +22.4 +8.9 42 +24 +24 комфорт 1026.0 1015.7
17 21.08 В 1 20 км н/о +22.4 +8.1 40 +24 +24 комфорт 1025.4 1015.1
18 21.08 В 1
{3}
20 км н/о +21.1 +8.4 44 +22 +22 комфорт 1025.7 1015.3 +9.7 +23.1
19 21.08 В 1 19 км н/о +17.8 +10.4 62 +19 +19 1026.0 1015.5
20 21.08 В 1 20 км н/о +14.5 +10.5 77 +15 +15 1026.2 1015.6 0.0
21 21.08 В 1
{2}
20 км н/о +12.2 +9.9 86 +13 +13 1026.2 1015.5 0.0
22 21.08 В 1 20 км н/о +12.4 +10.3 87 +13 +13 1026.2 1015.5
23 21.08 штиль 0 20 км н/о +11.0 +9.4 90 +10 +10 1026.2 1015.5
00 22.08 ЮВ 1
{1}
20 км н/о +10.8 +9.6 92 +11 +11 1026.0 1015.3
01 22.08 В 1 20 км н/о +10.0 +9.2 95 +10 +10 1025.9 1015.1
02 22.08 штиль 0 20 км н/о +9.4 +8.8 96 +8 +8 1025.7 1014.9
03 22.08 В 1
{1}
20 км н/о +9.3 +8.7 96 +10 +10 1025.6 1014.8
04 22.08 штиль 0 19 км н/о +8.7 +8.4 98 +8 +8 1025.6 1014.8
05 22.08 штиль 0 20 км н/о +7.9 +7.3 96 +7 +7 1026.0 1015.1 0.2
06 22.08 В 1
{1}
19 км н/о +10.7 +10.2 97 +11 +11 1026.2 1015.5 +7.8 +21.1 0.2
07 22.08 С 1 19 км н/о +13.0 +11.2 89 +14 +14 1026.6 1015.9
08 22.08 С 1 20 км н/о +16.5 +10.6 68 +17 +17 1026.6 1016.1
09 22.08 С 1
{4}
20 км н/о +19.5 +11.3 59 +22 +22 комфорт 1026.7 1016.3
10 22.08 С 1 20 км н/о +21.4 +9.6 47 +23 +23 комфорт 1026.6 1016.2
11 22.08 С 1 20 км н/о +23.0 +11.4 48 +25 +25 комфорт 1026.3 1016.0
12 22.08 СВ 1 20 км н/о +24.0 +12.0 47 +26 +26 жарко 1025.7 1015.4
13 22.08 С 1-2
{3}
19 км н/о +24.6 +10.1 40 +26 +26 жарко 1025.4 1015.2
14 22.08 СВ 1 20 км н/о +25.3 +10.7 40 +26 +26 жарко 1025.0 1014.8
15 22.08 С 1
{4}
20 км н/о +25.7 +11.1 40 +27 +27 жарко 1024.7 1014.5
16 22.08 В 1 20 км н/о +25.9 +9.7 36 +27 +27 жарко 1024.5 1014.3
17 22.08 СВ 1 20 км н/о +25.5 +9.7 37 +26 +26 жарко 1024.2 1014.0
18 22.08 В 1
{3}
20 км н/о +23.5 +11.2 46 +25 +25 комфорт 1024.5 1014.2 +10.7 +26.3
19 22.08 В 1 20 км н/о +19.9 +11.9 60 +23 +23 комфорт 1024.9 1014.5
20 22.08 С 1 20 км н/о +18.1 +11.4 65 +19 +19 1026.0 1015.5
21 22.08 С 2
{4}
20 км н/о +16.6 +10.9 69 +17 +17 1026.2 1015.7
22 22.08 С 1 20 км н/о +14.8 +10.8 77 +15 +15 1026.5 1015.9
23 22.08 штиль 0 20 км н/о +14.5 +11.1 80 +14 +14 1026.5 1015.9
00 23.08 С 1
{2}
20 км н/о +12.9 +10.6 86 +14 +14 1026.5 1015.8
01 23.08 С 1 20 км н/о +12.7 +11.4 92 +13 +13 1026.2 1015.5
02 23.08 штиль 0 19 км н/о +11.5 +10.4 93 +11 +11 1025.9 1015.2
03 23.08 штиль 0
{2}
19 км н/о +10.4 +9.5 94 +10 +10 1026.1 1015.3
04 23.08 В 1
{1}
19 км н/о +9.9 +9.1 95 +10 +10 1025.8 1015.0
05 23.08 штиль 0 19 км н/о +9.5 +8.9 96 +9 +9 1025.7 1014.9
06 23.08 С 1
{2}
15 км н/о +11.2 +10.9 98 +12 +12 1025.7 1015.0 +9.3 +23.5
07 23.08 С 1 19 км н/о +14.1 +11.8 86 +15 +15 1025.8 1015.2
08 23.08 СВ 1 20 км н/о +17.4 +11.9 70 +18 +18 1025.4 1014.9
09 23.08 СВ 2
{4}
19 км н/о +20.3 +13.3 64 +23 +23 комфорт 1025.2 1014.8
10 23.08 С 2 19 км н/о +22.8 +13.0 54 +26 +26 жарко 1024.9 1014.6
11 23.08 СВ 2 20 км н/о +24.9 +11.5 43 +26 +26 жарко 1024.3 1014.1
12 23.08 СВ 2
{6}
19 км н/о +26.0 +13.1 45 +28 +28 жарко 1023.5 1013.3
13 23.08 СВ 2 20 км н/о +26.8 +12.8 42 +28 +28 жарко 1022.9 1012.8
14 23.08 СВ 2 19 км н/о +26.7 +12.7 42 +28 +28 жарко 1022.5 1012.4
15 23.08 СВ 2
{7}
20 км н/о +26.8 +12.8 42 +28 +28 жарко 1022.0 1011.9
16 23.08 СВ 2 20 км н/о +26.9 +11.4 38 +28 +28 жарко 1021.7 1011.6
17 23.08 СВ 2 20 км н/о +26.4 +11.3 39 +28 +28 жарко 1021.2 1011.1
18 23.08 СВ 1
{5}
20 км н/о +24.4 +12.7 48 +26 +26 жарко 1021.1 1010.9 +11.3 +27.6
19 23.08 В 1 20 км н/о +22.0 +12.5 55 +25 +25 комфорт 1021.4 1011.1
20 23.08 В 1 20 км н/о +17.9 +13.2 74 +20 +20 1021.3 1010.9
21 23.08 В 1
{2}
20 км н/о +15.9 +12.6 81 +17 +17 1021.3 1010.8
22 23.08 В 1 20 км н/о +14.8 +12.5 86 +16 +16 1021.2 1010.7
23 23.08 штиль 0 20 км н/о +14.4 +11.9 85 +14 +14 1021.0 1010.5
00 24.08 штиль 0
{1}
20 км н/о +13.9 +12.8 93 +13 +13 1020.8 1010.2
01 24.08 штиль 0 20 км н/о +13.2 +11.8 91 +13 +13 1020.5 1009.9
02 24.08 штиль 0 20 км н/о +12.9 +11.3 90 +12 +12 1020.4 1009.8
03 24.08 штиль 0
{1}
20 км н/о +12.0 +11.1 94 +11 +11 1020.3 1009.7
04 24.08 штиль 0 14 км н/о +11.5 +11.0 97 +11 +11 1020.1 1009.5
05 24.08 штиль 0 19 км н/о +10.9 +10.4 97 +10 +10 1020.1 1009.4
06 24.08 штиль 0
{1}
19 км н/о +12.0 +11.7 98 +11 +11 1020.1 1009.5 +10.7 +24.4
07 24.08 СЗ 1 18 км н/о +15.6 +13.6 88 +17 +17 1020.1 1009.6
08 24.08 С 1 19 км н/о +19.2 +15.1 77 +22 +22 комфорт 1019.9 1009.5
09 24.08 С 1
{3}
18 км н/о +22.8 +15.4 63 +27 +27 душно 1019.6 1009.4
10 24.08 В 2 20 км н/о +25.8 +16.1 55 +29 +29 душно 1019.1 1009.0
11 24.08 ЮВ 2 19 км н/о +27.2 +15.2 48 +30 +30 душно 1018.9 1008.8
12 24.08 Ю 2
{6}
20 км н/о +28.1 +14.3 43 +30 +30 жарко 1018.3 1008.3
13 24.08 В 1 20 км н/о +29.4 +14.8 41 +32 +32 душно 1018.0 1008.0
14 24.08 Ю 1 20 км н/о +29.2 +13.8 39 +31 +31 жарко 1017.6 1007.6
15 24.08 Ю 2
{5}
20 км н/о +30.0 +12.9 35 +31 +31 жарко 1017.5 1007.5
16 24.08 Ю 1 20 км н/о +29.9 +13.2 36 +31 +31 жарко 1017.3 1007.3
17 24.08 Ю 1 20 км н/о +29.7 +13.5 37 +31 +31 жарко 1017.0 1007.0
18 24.08 В 1
{3}
20 км н/о +28.0 +14.3 43 +30 +30 жарко 1017.0 1007.0 +12.1 +30.5
19 24.08 В 1 14 км н/о +22.3 +15.9 67 +26 +26 жарко 1017.1 1006.9
20 24.08 В 1 20 км н/о +19.9 +14.5 71 +23 +23 комфорт 1017.5 1007.2 0.0
21 24.08 В 1
{3}
19 км н/о +17.7 +14.6 82 +19 +19 1017.6 1007.2 0.0
22 24.08 В 1 20 км н/о +16.8 +14.1 84 +18 +18 1017.6 1007.2
23 24.08 штиль 0 20 км н/о +17.2 +14.5 84 +17 +17 1017.7 1007.3
00 25.08 штиль 0
{2}
20 км н/о +15.5 +13.3 87 +15 +15 1017.5 1007.0
01 25.08 штиль 0 20 км н/о +15.2 +13.7 91 +15 +15 1017.5 1007.0
02 25.08 В 1 19 км н/о +14.9 +13.9 94 +16 +16 1017.7 1007.2
03 25.08 В 1
{1}
11 км н/о +13.9 +13.3 96 +15 +15 1017.5 1007.0
04 25.08 В 1 11 км н/о +13.7 +13.4 98 +15 +15 1017.5 1007.0
05 25.08 штиль 0 18 км н/о +12.9 +12.3 96 +12 +12 1017.8 1007.2
06 25.08 В 1
{1}
18 км н/о +13.2 +12.6 96 +14 +14 1018.2 1007.6 +12.8 +27.9 0.0
07 25.08 штиль 0 10 км н/о +15.2 +15.0 99 +15 +15 1018.6 1008.1
08 25.08 С 1 18 км н/о +20.4 +16.0 76 +25 +25 комфорт 1018.7 1008.4
09 25.08 С 1
{2}
н/о н/о +24.3 +16.8 63 +28 +28 душно 1018.9 1008.7
10 25.08 С 1 20 км н/о +27.5 +15.8 49 +31 +31 душно 1018.6 1008.5
11 25.08 СВ 1 20 км н/о +28.8 +13.5 39 +30 +30 жарко 1018.1 1008.1
12 25.08 В 1
{4}
18 км н/о +30.2 +13.9 37 +32 +32 жарко 1018.0 1008.0

 

Местоположение метеостанции Крей (Франция): широта 49.25 долгота 2.52 высота над уровнем моря 88 м.

В архиве по умолчанию представлена погода в Крее за последнюю неделю. Архивные данные за месяц целиком и за предыдущие месяцы, начиная с января 2011 года, Вы можете получить, выбрав интересующий диапазон дат из раскрывающегося списка и нажав кнопку "Ввод!".


*Определитесь, кто Вы:
робот инопланетянин человек

Внимание! Время в таблицах - всемирное. Для получения местного времени необходимо прибавить поправку, которая равна 1 ч.

Смотрите также архив погоды в соседних городах и на ближайших метеорологических станциях:

Погода в Аэропорту Шарль де Голль (Франция) (26 км)
Погода в Ле-Бурже (Франция) (32 км)
Погода в Бове (Франция) (38 км)
Погода в Кормее (Франция) (40 км)
Погода в Париже (Франция) (50 км)
Погода в Велизи-Вилакубле (Франция) (58 км)
Погода в Париж Орли аэропорту (Франция) (60 км)
Погода в Трапе (Франция) (65 км)
Погода в Мелене (Франция) (71 км)
Погода в Сен-Кантене (Франция) (80 км)

Пояснения к столбцам:

Ветер - указаны скорость ветра в м/с - средняя за 10 мин, порывы в срок и между сроками (в фигурных скобках) и направление, откуда дует ветер: С - северный, СВ - северо-восточный, В - восточный, ЮВ - юго-восточный, Ю - южный, ЮЗ - юго-западный, З - западный, СЗ - северо-западный.
Видимость - горизонтальная дальность видимости в метрах или километрах. При видимости от 1 до 10 км при отсутствии осадков обычно наблюдается дымка, при ухудшении видимости до 1 км и менее - туман. В сухую погоду видимость может ухудшаться дымом, пылью или мглою.
Явления - указаны атмосферные явления, наблюдавшиеся в срок или в последний час перед сроком; фигурными скобками обозначены явления, наблюдавшиеся между сроками (за 1-3 часа до срока); квадратными скобками обозначены град или гололедные отложения с указанием их диаметра в мм.
Облачность - указаны через наклонную черту общая и нижняя облачность в баллах и высота нижней границы облаков в метрах; квадратными скобками обозначены формы облаков: Ci - перистые, Cs - перисто-слоистые, Cc - перисто-кучевые, Ac - высококучевые, As - высокослоистые, Sc - слоисто-кучевые, Ns - слоисто-дождевые, Cu - кучевые, Cb - кучево-дождевые. Подробнее классификацию облаков см. в Атласе облаков (PDF).
T - Температура воздуха - температура, измеренная на высоте 2 м над землей.
Td - Температура точки росы - температура, при понижении до которой содержащийся в воздухе водяной пар достигнет насыщения.
f - Относительная влажность воздуха - влажноcть воздуха, измеренная на высоте 2 м над землей.
Te - Эффективная температура - температура, которую ощущает одетый по сезону человек в тени. Характеристика душности погоды. При расчете учитывается влияние влажности воздуха и скорости ветра на теплоощущения человека.
Tes - Эффективная температура на солнце - температура, которую ощущает человек, с поправкой на солнечный нагрев. Характеристика знойности погоды. Зависит от высоты солнца над горизонтом, облачности и скорости ветра. Ночью, в пасмурную погоду, а также при ветре 12 м/с и более поправка равна нулю.
P - Атмосферное давление - приведенное к уровню моря атмосферное давление.
Po - Атмосферное давление - измеренное на уровне метеостанции атмосферное давление.
Tmin - Минимальная температура - минимум температуры воздуха на высоте 2 м над землей.
Tmax - Максимальная температура - максимум температуры воздуха на высоте 2 м над землей.
R - Количество осадков - Количество выпавших осадков за период времени, мм. При наведении курсора мыши на число - период времени, за который выпало указанное количество осадков.
R24 - Количество осадков - Количество выпавших осадков за 24 часа, мм.
S - Снежный покров - Высота снежного покрова, см. При наведении курсора мыши на число - состояние снежного покрова и степень покрытия местности в баллах.